Home   Weather   Darlington   Past weeks
Flag for United Kingdom

Past Weather in Darlington, England, United Kingdom — Yesterday and Last 2 Weeks

Now
52 °F

Passing clouds.


Feels Like: 48 °F
Forecast: 61 / 45 °F
Wind: 10 mph from Southwest

Location: Tees-Side

Current Time: Jun 20, 2019 at 10:31:48 pm

Latest Report: Jun 20, 2019 at 9:50 pm


Visibility: N/A

Pressure: 29.89 "Hg

Humidity: 77%

Dew Point: 45 °F

Location of DarlingtonLocation

Past Weather in Darlington — Graph

°F

Darlington Temperature Yesterday

Maximum temperature yesterday: 64 °F (at 3:20 pm)
Minimum temperature yesterday: 52 °F (at 6:50 am)
Average temperature yesterday: 58 °F

High & Low Weather Summary for the Past Weeks

 TemperatureHumidityPressure
High66 °F (Jun 16, 3:20 pm)100% (Jun 6, 6:50 am)30.09 "Hg (Jun 6, 6:50 am)
Low41 °F (Jun 7, 6:20 am)42% (Jun 9, 5:20 pm)29.50 "Hg (Jun 8, 5:50 am)
Average56 °F76%29.84 "Hg
* Reported Jun 5 9:20 pm — Jun 20 9:20 pm, Darlington. Weather by CustomWeather, © 2019

Note: Actual official high and low records may vary slightly from our data, if they occured in-between our weather recording intervals... More about our weather records

Advertising

Darlington Weather History for the Previous 24 Hours

Scroll right to see more
 ConditionsComfort  
Time TempWeatherWind HumidityBarometerVisibility
9:20 pm
Thu, Jun 20
52 °FPassing clouds.8 mph77%29.89 "HgN/A
8:50 pm54 °FPassing clouds.10 mph67%29.89 "HgN/A
8:20 pm55 °FPassing clouds.12 mph63%29.86 "HgN/A
7:50 pm57 °FPassing clouds.14 mph59%29.86 "HgN/A
7:20 pm59 °FPassing clouds.14 mph55%29.86 "HgN/A
6:50 pm59 °FPassing clouds.16 mph55%29.83 "HgN/A
6:20 pm61 °FPassing clouds.15 mph55%29.83 "HgN/A
5:50 pm61 °FPassing clouds.13 mph59%29.83 "HgN/A
5:20 pm57 °FPassing clouds.15 mph59%29.83 "HgN/A
4:50 pm61 °FPassing clouds.18 mph55%29.83 "HgN/A
4:20 pm61 °FPassing clouds.21 mph55%29.83 "HgN/A
3:50 pm57 °FPassing clouds.14 mph63%29.83 "HgN/A
3:20 pm61 °FPassing clouds.20 mph55%29.83 "HgN/A
2:50 pm61 °FScattered clouds.17 mph55%29.80 "HgN/A
2:20 pm59 °FScattered clouds.14 mph55%29.80 "HgN/A
1:50 pm59 °FScattered clouds.14 mph55%29.80 "HgN/A
1:20 pm61 °FScattered clouds.14 mph52%29.80 "HgN/A
12:50 pm61 °FScattered clouds.17 mph52%29.80 "HgN/A
12:20 pm61 °FScattered clouds.13 mph55%29.80 "HgN/A
11:50 am59 °FPassing clouds.18 mph59%29.80 "HgN/A
11:20 am59 °FPassing clouds.15 mph59%29.77 "HgN/A
10:50 am57 °FScattered clouds.14 mph59%29.77 "HgN/A
10:20 am59 °FScattered clouds.14 mph63%29.77 "HgN/A
9:50 am59 °FPassing clouds.10 mph63%29.77 "HgN/A
9:20 am57 °FPassing clouds.10 mph67%29.77 "HgN/A
8:50 am57 °FPassing clouds.9 mph77%29.77 "HgN/A
8:20 am55 °FPassing clouds.13 mph82%29.74 "HgN/A
7:50 am54 °FPassing clouds.9 mph88%29.74 "HgN/A
7:20 am54 °FLight rain. Passing clouds.9 mph82%29.74 "HgN/A
6:50 am52 °FPassing clouds.9 mph88%29.74 "HgN/A
6:20 am52 °FPassing clouds.9 mph88%29.74 "HgN/A
5:50 am50 °FPassing clouds.8 mph88%29.74 "HgN/A
Weather by CustomWeather, © 2019

See weather overview